When you browse on this site, cookies collect data to enhance your experience and personalize the content and advertising you see.
Visit our Privacy Policy to learn more. By continuing to use the site, you agree to this use of cookies and data.
  • In Hungary
  • List of Countries
  • For 7 days
  • Water Temperature
  • Weather Map
  • News
  • Weather Widgets
  • user-avatar
    Login

    Hourly Weather Chichen-Itza

    Today, 17 November, Sunday

    Time Temperature Precipitation Wind Pressure Humidity
    00:00 +18°C° 0 mm 1 mps 759 mmHg 84%
    01:00 +18°C° 0 mm 1 mps 759 mmHg 84%
    02:00 +18°C° 0 mm 1 mps 759 mmHg 85%
    03:00 +16°C° 0 mm 1 mps 758 mmHg 86%
    04:00 +16°C° 0 mm 1 mps 759 mmHg 87%
    05:00 +15°C° 0 mm 0 mps 759 mmHg 88%
    06:00 +15°C° 0 mm 0 mps 759 mmHg 89%
    07:00 +20°C° 0 mm 1 mps 759 mmHg 78%
    08:00 +22°C° 0 mm 1 mps 760 mmHg 67%
    09:00 +25°C° 0 mm 1 mps 760 mmHg 57%
    10:00 +26°C° 0 mm 1 mps 759 mmHg 54%
    11:00 +27°C° 0 mm 1 mps 759 mmHg 51%
    12:00 +28°C° 0 mm 2 mps 758 mmHg 48%
    13:00 +27°C° 0 mm 2 mps 758 mmHg 49%
    14:00 +27°C° 0 mm 2 mps 757 mmHg 51%
    15:00 +27°C° 0 mm 2 mps 757 mmHg 53%
    16:00 +25°C° 0 mm 1 mps 757 mmHg 60%
    17:00 +23°C° 0 mm 1 mps 757 mmHg 67%
    18:00 +22°C° 0 mm 1 mps 758 mmHg 74%
    19:00 +21°C° 0 mm 1 mps 758 mmHg 76%
    20:00 +20°C° 0 mm 1 mps 758 mmHg 78%
    21:00 +19°C° 0 mm 1 mps 759 mmHg 80%
    22:00 +19°C° 0 mm 1 mps 759 mmHg 81%
    23:00 +16°C° 0 mm 0 mps 758 mmHg 82%

    Tomorrow, 18 November, Monday

    Time Temperature Precipitation Wind Pressure Humidity
    00:00 +16°C° 0 mm 0 mps 758 mmHg 83%
    01:00 +15°C° 0 mm 0 mps 758 mmHg 84%
    02:00 +15°C° 0 mm 0 mps 758 mmHg 86%
    03:00 +15°C° 0 mm 0 mps 758 mmHg 87%
    04:00 +15°C° 0 mm 0 mps 758 mmHg 89%
    05:00 +14°C° 0 mm 0 mps 758 mmHg 90%
    06:00 +14°C° 0 mm 0 mps 759 mmHg 91%
    07:00 +17°C° 0 mm 0 mps 759 mmHg 79%
    08:00 +20°C° 0 mm 0 mps 759 mmHg 68%
    09:00 +25°C° 0 mm 1 mps 760 mmHg 56%
    10:00 +26°C° 0 mm 1 mps 759 mmHg 52%
    11:00 +27°C° 0 mm 1 mps 758 mmHg 48%
    12:00 +28°C° 0 mm 1 mps 758 mmHg 44%
    13:00 +28°C° 0 mm 1 mps 757 mmHg 45%
    14:00 +28°C° 0 mm 2 mps 757 mmHg 47%
    15:00 +28°C° 0 mm 2 mps 756 mmHg 48%
    16:00 +25°C° 0 mm 1 mps 757 mmHg 58%
    17:00 +23°C° 0 mm 1 mps 757 mmHg 68%
    18:00 +21°C° 0 mm 1 mps 757 mmHg 78%
    19:00 +20°C° 0 mm 1 mps 758 mmHg 81%
    20:00 +19°C° 0 mm 1 mps 758 mmHg 84%
    21:00 +16°C° 0 mm 0 mps 758 mmHg 86%
    22:00 +16°C° 0 mm 0 mps 759 mmHg 86%
    23:00 +16°C° 0 mm 0 mps 759 mmHg 86%

    Day after tomorrow, 19 November, Tuesday

    Time Temperature Precipitation Wind Pressure Humidity
    00:00 +15°C° 0 mm 0 mps 759 mmHg 86%
    01:00 +15°C° 0 mm 0 mps 758 mmHg 87%
    02:00 +15°C° 0 mm 0 mps 758 mmHg 87%
    03:00 +14°C° 0 mm 0 mps 758 mmHg 88%
    04:00 +14°C° 0 mm 0 mps 758 mmHg 89%
    05:00 +14°C° 0 mm 0 mps 759 mmHg 90%
    06:00 +14°C° 0 mm 0 mps 759 mmHg 90%
    07:00 +17°C° 0 mm 0 mps 759 mmHg 79%
    08:00 +20°C° 0 mm 0 mps 760 mmHg 68%
    09:00 +24°C° 0 mm 0 mps 760 mmHg 57%
    10:00 +25°C° 0 mm 0 mps 760 mmHg 53%
    11:00 +28°C° 0 mm 1 mps 759 mmHg 49%
    12:00 +29°C° 0 mm 1 mps 759 mmHg 44%
    13:00 +29°C° 0 mm 1 mps 758 mmHg 46%
    14:00 +28°C° 0 mm 2 mps 758 mmHg 48%
    15:00 +28°C° 0 mm 2 mps 758 mmHg 50%
    16:00 +26°C° 0 mm 2 mps 758 mmHg 59%
    17:00 +24°C° 0 mm 1 mps 758 mmHg 69%
    18:00 +21°C° 0 mm 1 mps 758 mmHg 79%
    19:00 +21°C° 0 mm 1 mps 759 mmHg 82%
    20:00 +20°C° 0 mm 1 mps 760 mmHg 85%
    21:00 +19°C° 0 mm 1 mps 760 mmHg 88%
    22:00 +19°C° 0 mm 1 mps 760 mmHg 89%
    23:00 +16°C° 0 mm 0 mps 760 mmHg 91%

    20 November, Wednesday

    Time Temperature Precipitation Wind Pressure Humidity
    00:00 +16°C° 0 mm 0 mps 760 mmHg 93%
    01:00 +16°C° 0 mm 0 mps 760 mmHg 93%
    02:00 +16°C° 0 mm 0 mps 760 mmHg 93%
    03:00 +15°C° 0 mm 0 mps 759 mmHg 92%
    04:00 +15°C° 0 mm 0 mps 760 mmHg 92%
    05:00 +15°C° 0 mm 0 mps 760 mmHg 91%
    06:00 +15°C° 0 mm 0 mps 760 mmHg 90%
    07:00 +18°C° 0 mm 0 mps 760 mmHg 80%
    08:00 +23°C° 0 mm 1 mps 761 mmHg 69%
    09:00 +25°C° 0 mm 1 mps 761 mmHg 59%
    10:00 +27°C° 0 mm 1 mps 761 mmHg 55%
    11:00 +28°C° 0 mm 1 mps 760 mmHg 50%
    12:00 +30°C° 0 mm 1 mps 759 mmHg 46%
    13:00 +29°C° 0 mm 2 mps 759 mmHg 49%
    14:00 +29°C° 0 mm 2 mps 758 mmHg 52%
    15:00 +29°C° 0 mm 2 mps 758 mmHg 55%
    16:00 +27°C° 0 mm 2 mps 758 mmHg 66%
    17:00 +25°C° 0 mm 2 mps 758 mmHg 77%
    18:00 +23°C° 0 mm 1 mps 759 mmHg 87%
    19:00 +22°C° 0 mm 1 mps 759 mmHg 91%
    20:00 +21°C° 0 mm 1 mps 759 mmHg 95%
    21:00 +21°C° 0 mm 1 mps 760 mmHg 98%
    22:00 +21°C° 0 mm 1 mps 760 mmHg 98%
    23:00 +20°C° 0 mm 1 mps 760 mmHg 98%

    21 November, Thursday

    Time Temperature Precipitation Wind Pressure Humidity
    00:00 +20°C° 0 mm 1 mps 759 mmHg 97%
    01:00 +20°C° 0 mm 1 mps 759 mmHg 97%
    02:00 +20°C° 0 mm 1 mps 759 mmHg 97%
    03:00 +20°C° 0 mm 1 mps 759 mmHg 97%
    04:00 +20°C° 0 mm 1 mps 759 mmHg 97%
    05:00 +20°C° 0 mm 1 mps 759 mmHg 98%
    06:00 +20°C° 0 mm 1 mps 760 mmHg 98%
    07:00 +23°C° 0 mm 1 mps 760 mmHg 87%
    08:00 +25°C° 0 mm 1 mps 760 mmHg 77%
    09:00 +27°C° 0 mm 1 mps 761 mmHg 66%
    10:00 +29°C° 0 mm 1 mps 760 mmHg 61%
    11:00 +30°C° 0 mm 2 mps 759 mmHg 56%
    12:00 +31°C° 0 mm 2 mps 759 mmHg 51%
    13:00 +31°C° 0 mm 2 mps 758 mmHg 53%
    14:00 +31°C° 0 mm 2 mps 758 mmHg 55%
    15:00 +30°C° 0 mm 2 mps 757 mmHg 57%
    16:00 +29°C° 0.1 mm 2 mps 757 mmHg 67%
    17:00 +27°C° 0.1 mm 2 mps 758 mmHg 77%
    18:00 +25°C° 0.1 mm 2 mps 758 mmHg 87%
    19:00 +24°C° 0 mm 1 mps 758 mmHg 89%
    20:00 +23°C° 0 mm 1 mps 758 mmHg 92%
    21:00 +22°C° 0 mm 1 mps 759 mmHg 95%
    22:00 +22°C° 0 mm 1 mps 759 mmHg 96%
    23:00 +22°C° 0 mm 1 mps 758 mmHg 97%

    22 November, Friday

    Time Temperature Precipitation Wind Pressure Humidity
    00:00 +22°C° 0 mm 1 mps 758 mmHg 99%
    01:00 +21°C° 0 mm 1 mps 758 mmHg 99%
    02:00 +21°C° 0 mm 1 mps 758 mmHg 99%
    03:00 +19°C° 0 mm 0 mps 757 mmHg 99%
    04:00 +19°C° 0 mm 0 mps 757 mmHg 99%
    05:00 +19°C° 0 mm 0 mps 758 mmHg 99%
    06:00 +19°C° 0 mm 0 mps 758 mmHg 98%
    07:00 +23°C° 0 mm 1 mps 758 mmHg 90%
    08:00 +25°C° 0 mm 1 mps 759 mmHg 81%
    09:00 +28°C° 0 mm 1 mps 759 mmHg 73%
    10:00 +29°C° 0 mm 1 mps 758 mmHg 64%
    11:00 +31°C° 0 mm 1 mps 758 mmHg 56%
    12:00 +33°C° 0 mm 1 mps 757 mmHg 47%
    13:00 +32°C° 0 mm 1 mps 756 mmHg 51%
    14:00 +32°C° 0 mm 1 mps 756 mmHg 54%
    15:00 +31°C° 0 mm 1 mps 755 mmHg 57%
    16:00 +30°C° 0.1 mm 1 mps 755 mmHg 67%
    17:00 +28°C° 0.1 mm 1 mps 755 mmHg 77%
    18:00 +26°C° 0.1 mm 1 mps 756 mmHg 86%
    19:00 +25°C° 0 mm 1 mps 756 mmHg 90%
    20:00 +25°C° 0 mm 1 mps 756 mmHg 94%
    21:00 +24°C° 0 mm 1 mps 757 mmHg 98%
    22:00 +24°C° 0 mm 1 mps 757 mmHg 98%
    23:00 +24°C° 0 mm 1 mps 757 mmHg 99%
    Show more